Home   Weather   Porto Novo   Past weeks

Flag for Benin Past Weather in Porto Novo, Benin — Yesterday and Last 2 Weeks

79 °F

Passing clouds.

Feels Like: 82 °F
Forecast: 77 / 91 °F
Wind: 5 mph from Southwest

Location: Cotonou Airport

Current Time: Oct 27, 2016 at 12:27:23 AM

Latest Report: Oct 27, 2016 at 12:00 AM

Visibility: N/A

Pressure: 29.80 "Hg

Humidity: 89%

Dew Point: 75 °F

Location of Porto NovoLocation

Past Weather in Porto Novo — Graph


Porto Novo Temperature Yesterday

Maximum temperature yesterday: 88 °F (at 12:00 PM)
Minimum temperature yesterday: 79 °F (at 10:00 PM)
Average temperature yesterday: 83 °F

High & Low Weather Summary for the Past Weeks

High88 °F (Oct 12, 1:00 PM)100% (Oct 12, 4:00 AM)29.95 "Hg (Oct 12, 4:00 AM)
Low73 °F (Oct 19, 2:00 AM)62% (Oct 16, 12:00 PM)29.68 "Hg (Oct 26, 4:00 PM)
Average82 °F84%29.83 "Hg
* Reported Oct 11 11:00 PM — Oct 26 11:00 PM, Porto Novo, Weather by CustomWeather, © 2016

Note: Actual official high and low records may vary slightly from our data, if they occured in-between our weather recording intervals... More about our weather records


Porto Novo Weather History for the Previous 24 Hours

Scroll right to see more
Time TempWeatherWind HumidityBarometerVisibility
11:00 PM
Wed, Oct 26
79 °FPassing clouds.6 mph89%29.80 "HgN/A
10:00 PM79 °FPassing clouds.5 mph89%29.80 "HgN/A
9:00 PM81 °FPassing clouds.2 mph84%29.77 "HgN/A
8:00 PM81 °FThunderstorms. Passing clouds.6 mph84%29.77 "HgN/A
7:00 PM81 °FThunderstorms. Passing clouds.No wind84%29.74 "HgN/A
6:00 PM82 °FThunderstorms. Passing clouds.8 mph79%29.71 "HgN/A
5:00 PM82 °FPassing clouds.12 mph84%29.71 "HgN/A
4:00 PM84 °FPassing clouds.13 mph79%29.68 "HgN/A
3:00 PM88 °FPassing clouds.15 mph75%29.71 "HgN/A
2:00 PM88 °FThunderstorms. Passing clouds.9 mph70%29.71 "HgN/A
1:00 PM88 °FThunderstorms. Passing clouds.12 mph70%29.74 "HgN/A
12:00 PM88 °FThunderstorms. Scattered clouds.12 mph79%29.80 "HgN/A
11:00 AM86 °FThunderstorms. Scattered clouds.12 mph84%29.80 "HgN/A
10:00 AM86 °FThunderstorms. Scattered clouds.7 mph79%29.80 "Hg6 mi
9:00 AM84 °FScattered clouds.6 mph84%29.77 "Hg5 mi
8:00 AM81 °FPassing clouds.5 mph94%29.77 "Hg4 mi
7:00 AM81 °FScattered clouds.3 mph89%29.74 "Hg4 mi
6:00 AM81 °FPassing clouds.5 mph89%29.71 "Hg5 mi
5:00 AM82 °FPassing clouds.9 mph84%29.71 "Hg5 mi
4:00 AM82 °FPassing clouds.8 mph84%29.71 "Hg5 mi
3:00 AM82 °FPassing clouds.9 mph89%29.74 "Hg5 mi
2:00 AM82 °FPassing clouds.10 mph84%29.74 "Hg5 mi
1:00 AM82 °FPassing clouds.9 mph89%29.77 "Hg5 mi
12:00 AM82 °FPassing clouds.8 mph89%29.77 "Hg5 mi
Weather by CustomWeather, © 2016

See weather overviewHow to use our weather pages